This is the latest recevied weather packets stored in our database for station/object G6UYG-13. If no packets are shown the sender has not sent any weather packets the latest 10 day(s).
| Time | Temp. | Humidity | Pressure | Rain* | Wind** | Luminosity | Snow |
|---|---|---|---|---|---|---|---|
| 1777713590 | 14.44° C | 73% | 1014.9 hPa | 0 mm | - | 413 W/m² | - |
| 1777713170 | 13.89° C | 73% | 1015 hPa | 0 mm | - | 411 W/m² | - |
| 1777712750 | 13.89° C | 76% | 1015.1 hPa | 0 mm | - | 770 W/m² | - |
| 1777712330 | 12.78° C | 77% | 1015.3 hPa | 0 mm | - | 626 W/m² | - |
| 1777711910 | 12.78° C | 79% | 1015.4 hPa | 0 mm | - | 471 W/m² | - |
| 1777711490 | 12.78° C | 79% | 1015.5 hPa | 0 mm | - | 353 W/m² | - |
| 1777711070 | 12.22° C | 81% | 1015.3 hPa | 0 mm | - | 353 W/m² | - |
| 1777710650 | 12.22° C | 81% | 1015.3 hPa | 0 mm | - | 304 W/m² | - |
| 1777710230 | 12.22° C | 82% | 1015.2 hPa | 0 mm | - | 272 W/m² | - |
| 1777709811 | 12.22° C | 85% | 1015.2 hPa | 0 mm | - | 172 W/m² | - |
| 1777709390 | 12.22° C | 86% | 1015.1 hPa | 0 mm | - | 134 W/m² | - |
| 1777708970 | 11.67° C | 86% | 1015.1 hPa | 0 mm | - | 174 W/m² | - |
| 1777708550 | 11.67° C | 87% | 1015.2 hPa | 0 mm | - | 188 W/m² | - |
| 1777708131 | 11.67° C | 88% | 1015.2 hPa | 0 mm | - | 185 W/m² | - |
| 1777707711 | 11.67° C | 90% | 1015.2 hPa | 0 mm | - | 185 W/m² | - |
| 1777707291 | 11.11° C | 91% | 1015.2 hPa | 0 mm | - | 248 W/m² | - |
| 1777706871 | 11.11° C | 93% | 1015.3 hPa | 0 mm | - | 192 W/m² | - |
| 1777706451 | 11.11° C | 94% | 1015.3 hPa | 0 mm | - | 213 W/m² | - |
| 1777706031 | 10.56° C | 95% | 1015.4 hPa | 0 mm | - | 369 W/m² | - |
| 1777705611 | 10° C | 95% | 1015.3 hPa | 0 mm | - | 290 W/m² | - |
| 1777705191 | 10° C | 95% | 1015.3 hPa | 0 mm | - | 192 W/m² | - |
| 1777704771 | 9.44° C | 96% | 1015.4 hPa | 0 mm | - | 132 W/m² | - |
| 1777704351 | 9.44° C | 96% | 1015.5 hPa | 0 mm | - | 165 W/m² | - |
| 1777703931 | 8.89° C | 95% | 1015.4 hPa | 0 mm | - | 176 W/m² | - |
| 1777703511 | 8.89° C | 95% | 1015.4 hPa | 0 mm | - | 77 W/m² | - |
* Rain latest hour (hover to see other rain measurements)
** Current wind speed in m/s (hover to see current wind gust speed)